Flag for Austria Weather past 2 weeks in Hallein, Salzburg, Austria

Now
75 °F

Passing clouds.


Feels Like: 77 °F
Forecast: 61 / 85 °F
Wind: 3 mph from North

Location: Salzburg-Flughafen

Current Time: Aug 5, 2015 at 10:49:25 AM

Latest Report: Aug 5, 2015 at 10:20 AM


Visibility: N/A

Pressure: 30.12 "Hg

Humidity: 69%

Dew point: 64 °F

Location of HalleinLocation

Historic Weather in Hallein — Graph

°F

Hallein temperature yesterday

Maximum temperature yesterday: 88 °F (at 4:20 PM)
Minimum temperature yesterday: 61 °F (at 4:20 AM)
Average temperature yesterday: 74 °F

Past Weeks' High & Low Weather Summary

 TemperatureHumidityPressure
High95 °F (Jul 22, 4:20 PM)100% (Jul 27, 7:20 AM)30.18 "Hg (Jul 27, 7:20 AM)
Low54 °F (Jul 29, 3:50 AM)32% (Jul 22, 4:20 PM)29.74 "Hg (Jul 24, 7:20 PM)
Average68 °F71%29.97 "Hg
* Reported Jul 21 9:20 AM — Aug 5 9:50 AM, Hallein, Weather by CustomWeather, © 2015

Note: Actual official high and low records may vary slightly from our data, if they occured in-between our weather recording intervals... More about our weather records

Advertising

Hallein weather history for previous 24 hours

 ConditionsComfort  
Time TempWeatherWind HumidityBarometerVisibility
9:50 AM
Wed, Aug 5
73 °FPassing clouds.2 mph74%30.12 "HgN/A
9:20 AM72 °FPassing clouds.6 mph78%30.12 "HgN/A
8:50 AM70 °FPassing clouds.5 mph83%30.12 "HgN/A
8:20 AM68 °FPassing clouds.3 mph88%30.12 "HgN/A
7:50 AM68 °FPassing clouds.5 mph83%30.12 "HgN/A
7:20 AM66 °FSunny.5 mph88%30.12 "Hg10 mi
6:50 AM64 °FPassing clouds.1 mph94%30.12 "HgN/A
6:20 AM63 °FPassing clouds.2 mph100%30.12 "HgN/A
5:50 AM64 °FPassing clouds.5 mph94%30.12 "HgN/A
5:20 AM64 °FMild.3 mph94%30.12 "HgN/A
4:50 AM66 °FPassing clouds.5 mph94%30.12 "HgN/A
4:20 AM64 °FPassing clouds.7 mph100%30.12 "HgN/A
3:50 AM66 °FPassing clouds.1 mph94%30.12 "HgN/A
3:20 AM68 °FPassing clouds.8 mph88%30.12 "HgN/A
2:50 AM68 °FPassing clouds.6 mph88%30.12 "HgN/A
2:20 AM68 °FPassing clouds.6 mph94%30.12 "HgN/A
1:50 AM68 °FPassing clouds.5 mph88%30.12 "HgN/A
1:20 AM68 °FPartly cloudy.6 mph94%30.15 "HgN/A
12:50 AM68 °FSprinkles. Passing clouds.7 mph94%30.15 "HgN/A
12:20 AM68 °FPartly cloudy.7 mph94%30.12 "HgN/A
11:50 PM
Tue, Aug 4
68 °FOvercast.7 mph94%30.12 "HgN/A
11:20 PM68 °FPartly cloudy.8 mph94%30.12 "HgN/A
10:50 PM68 °FPartly cloudy.9 mph88%30.09 "Hg6 mi
10:20 PM70 °FPartly cloudy.6 mph78%30.09 "HgN/A
9:50 PM72 °FThundershowers. Partly cloudy.7 mph73%30.07 "HgN/A
9:20 PM72 °FThundershowers. Broken clouds.9 mph78%30.07 "Hg6 mi
8:50 PM70 °FThunderstorms. Broken clouds.14 mph88%30.04 "Hg6 mi
8:20 PM81 °FSprinkles. Broken clouds.15 mph54%29.98 "HgN/A
7:50 PM81 °FBroken clouds.3 mph58%29.98 "HgN/A
7:20 PM84 °FScattered clouds.3 mph45%29.95 "HgN/A
6:50 PM84 °FScattered clouds.5 mph48%29.95 "HgN/A
6:20 PM84 °FScattered clouds.9 mph45%29.95 "HgN/A
5:50 PM86 °FBroken clouds.9 mph43%29.95 "HgN/A
5:20 PM86 °FScattered clouds.8 mph40%29.95 "HgN/A
4:50 PM88 °FScattered clouds.10 mph38%29.95 "HgN/A
4:20 PM88 °FScattered clouds.15 mph40%29.95 "HgN/A
3:50 PM86 °FPartly sunny.10 mph43%29.95 "HgN/A
3:20 PM86 °FPartly sunny.8 mph46%29.95 "HgN/A
2:50 PM86 °FPartly sunny.6 mph43%29.95 "HgN/A
2:20 PM84 °FPartly sunny.6 mph43%29.95 "HgN/A
1:50 PM84 °FPartly sunny.6 mph43%29.95 "HgN/A
1:20 PM84 °FScattered clouds.5 mph43%29.95 "HgN/A
12:50 PM84 °FScattered clouds.2 mph43%29.95 "HgN/A
12:20 PM81 °FScattered clouds.1 mph51%29.98 "HgN/A
11:50 AM82 °FScattered clouds.2 mph45%29.98 "HgN/A
11:20 AM81 °FScattered clouds.1 mph51%29.98 "HgN/A
10:50 AM79 °FSunny.1 mph54%29.98 "Hg10 mi
10:20 AM77 °FSunny.3 mph57%29.98 "Hg10 mi
Weather by CustomWeather, © 2015

See weather overviewHow to use our weather pages